Skip Page Navigation
NASA JPL Caltech
NASA Logo - Jet Propulsion Laboratory + View the NASA Portal
+ Near-Earth Object (NEO) Program
Search JPL
JPL Home Earth Solar System Stars & Galaxies Technology
JPL Solar System Dynamics
BODIES ORBITS EPHEMERIDES TOOLS PHYSICAL DATA DISCOVERY FAQ SITE MAP
JPL Small-Body Database Browser
Search: [ help ]  
24815 (1994 VQ6)
Classification: Inner Main-belt Asteroid          SPK-ID: 2024815
Ephemeris | Orbit Diagram | Orbital Elements | Physical Parameters | Discovery Circumstances ]

[ show orbit diagram ]
Orbital Elements at Epoch 2456400.5 (2013-Apr-18.0) TDB
Reference: MPO240402 (heliocentric ecliptic J2000)
 Element Value Uncertainty (1-sigma)   Units 
e 0.1018249 n/a  
a 1.9241822 n/a AU
q 1.7282525 n/a AU
i 21.03801 n/a deg
node 222.38471 n/a deg
peri 224.94493 n/a deg
M 290.26129 n/a deg
tp 2456589.3596218
(2013-Oct-23.85962180)
n/a JED
period 974.9171422
2.67
n/a
n/a
d
yr
n 0.36926215 n/a deg/d
Q 2.1201119 n/a AU
  Orbit Determination Parameters
   # obs. used (total)      414  
   first obs. used      1978-??-??  
   last obs. used      2012-10-10  
   # oppositions      11  
   planetary ephem.      DE403  
   condition code      1  
   fit RMS      0.52  
   data source      MPC:mpn  
   producer      MPCLINUX  

Additional Information
 T_jup = 3.833 

Ephemeris | Orbit Diagram | Orbital Elements | Physical Parameters | Discovery Circumstances ]

Physical Parameter Table
Parameter Symbol Value Units Sigma Reference Notes
absolute magnitude H 15.1 mag n/a PDS3 (MPO 12416)  
rotation period rot_per 31.17 h n/a Asteroid Lightcurve DataBase (Rev. 2013-May-01) Published Reference List:
[Warner, B.D. (2011) Minor Planet Bul. 38, 82-86.]

24815 (1994 VQ6)          Discovered 1994-Nov-07 by Ueda, S., Kaneda, H. at Kushiro (399)
Reference: 20010606/Numbers.arcLast Updated: 2004-04-19

Alternate Designations
 1994 VQ6 = 1978 UD4 = 1999 TQ322 
Ephemeris | Orbit Diagram | Orbital Elements | Physical Parameters | Discovery Circumstances ]
ABOUT SSD CREDITS/AWARDS PRIVACY/COPYRIGHT GLOSSARY LINKS
FirstGov 2013-May-21 15:33 UT
(server date/time)  
NASA Home Page
Site Manager:   Donald K. Yeomans
Webmaster  Alan B. Chamberlin